This is the latest recevied weather packets stored in our database for station/object N5ATR. If no packets are shown the sender has not sent any weather packets the latest 10 day(s).
| Time | Temp. | Humidity | Pressure | Rain* | Wind** | Luminosity | Snow |
|---|---|---|---|---|---|---|---|
| 1778130973 | 4.44° C | 59% | 1019 hPa | 0 mm | - | 0 W/m² | - |
| 1778130670 | 5° C | 59% | 1019.1 hPa | 0 mm | - | 0 W/m² | - |
| 1778130366 | 5.56° C | 55% | 1019.2 hPa | 0 mm | - | 0 W/m² | - |
| 1778130063 | 7.22° C | 49% | 1019 hPa | 0 mm | - | 0 W/m² | - |
| 1778129760 | 7.78° C | 44% | 1019 hPa | 0 mm | - | 0 W/m² | - |
| 1778129457 | 7.78° C | 44% | 1018.8 hPa | 0 mm | - | 0 W/m² | - |
| 1778129153 | 7.78° C | 44% | 1018.8 hPa | 0 mm | - | 0 W/m² | - |
| 1778128850 | 7.78° C | 44% | 1018.7 hPa | 0 mm | - | 0 W/m² | - |
| 1778128546 | 7.78° C | 45% | 1018.6 hPa | 0 mm | - | 0 W/m² | - |
| 1778128243 | 7.78° C | 46% | 1018.6 hPa | 0 mm | - | 0 W/m² | - |
| 1778127939 | 7.78° C | 47% | 1018.3 hPa | 0 mm | - | 0 W/m² | - |
| 1778127635 | 7.78° C | 48% | 1018.2 hPa | 0 mm | - | 0 W/m² | - |
| 1778127332 | 7.78° C | 50% | 1018.5 hPa | 0 mm | - | 0 W/m² | - |
| 1778127029 | 7.78° C | 52% | 1018.6 hPa | 0 mm | - | 0 W/m² | - |
| 1778126725 | 7.78° C | 53% | 1018.5 hPa | 0 mm | - | 0 W/m² | - |
| 1778126421 | 7.78° C | 54% | 1018.1 hPa | 0 mm | - | 0 W/m² | - |
| 1778126118 | 7.78° C | 54% | 1018.2 hPa | 0 mm | - | 0 W/m² | - |
| 1778125814 | 7.78° C | 55% | 1018.2 hPa | 0 mm | - | 0 W/m² | - |
| 1778125511 | 7.78° C | 55% | 1018.2 hPa | 0 mm | - | 0 W/m² | - |
| 1778125209 | 7.78° C | 55% | 1017.8 hPa | 0 mm | - | 0 W/m² | - |
| 1778124907 | 8.33° C | 54% | 1017.8 hPa | 0 mm | - | 0 W/m² | - |
| 1778124604 | 8.33° C | 53% | 1018 hPa | 0 mm | - | 0 W/m² | - |
| 1778124301 | 8.89° C | 53% | 1017.6 hPa | 0 mm | - | 0 W/m² | - |
| 1778123997 | 8.33° C | 53% | 1018 hPa | 0 mm | - | 0 W/m² | - |
| 1778123693 | 8.33° C | 53% | 1017.7 hPa | 0 mm | - | 0 W/m² | - |
* Rain latest hour (hover to see other rain measurements)
** Current wind speed in m/s (hover to see current wind gust speed)